| time (UTC) | temp C | wind direction | speed KPH | gust KPH | rain 1hr cm | rain 24hr cm | rain mn cm | humidity % | barometer mb |
| 20260505223724 | 15 | 0.0 | 0.0 | 0.00 | 0.30 | 0.30 | 83 | 999.9 | |
| 20260505223234 | 15 | 0.0 | 0.0 | 0.00 | 0.30 | 0.30 | 82 | 999.6 | |
| 20260505222712 | 15 | 0.0 | 0.0 | 0.00 | 0.30 | 0.30 | 81 | 999.6 | |
| 20260505222705 | 15 | 0.0 | 0.0 | 0.00 | 0.30 | 0.30 | 81 | 999.6 | |
| 20260505222205 | 16 | 0.0 | 0.0 | 0.00 | 0.30 | 0.30 | 81 | 999.4 | |
| 20260505221733 | 16 | 0.0 | 0.0 | 0.03 | 0.30 | 0.30 | 81 | 999.2 | |
| 20260505221726 | 16 | 0.0 | 0.0 | 0.03 | 0.30 | 0.30 | 81 | 999.2 | |
| 20260505221213 | 16 | 0.0 | 0.0 | 0.03 | 0.30 | 0.30 | 81 | 999.2 | |
| 20260505221206 | 16 | 0.0 | 0.0 | 0.03 | 0.30 | 0.30 | 81 | 999.2 | |
| 20260505220705 | 16 | 0.0 | 0.0 | 0.03 | 0.30 | 0.30 | 80 | 999.2 | |
| 20260505220213 | 16 | 0.0 | 0.0 | 0.03 | 0.30 | 0.30 | 80 | 999.3 | |
| 20260505220206 | 16 | 0.0 | 0.0 | 0.03 | 0.30 | 0.30 | 80 | 999.3 | |
| 20260505215725 | 16 | 0.0 | 0.0 | 0.03 | 0.30 | 0.30 | 79 | 999.2 | |
| 20260505215224 | 16 | 0.0 | 0.0 | 0.03 | 0.30 | 0.30 | 79 | 999.0 | |
| 20260505214713 | 16 | 0.0 | 0.0 | 0.03 | 0.30 | 0.30 | 79 | 998.8 | |
| 20260505214706 | 16 | 0.0 | 0.0 | 0.03 | 0.30 | 0.30 | 79 | 998.8 | |
| 20260505214206 | 16 | 0.0 | 0.0 | 0.03 | 0.30 | 0.30 | 78 | 998.6 | |
| 20260505213712 | 16 | 0.0 | 0.0 | 0.03 | 0.30 | 0.30 | 77 | 998.5 | |
| 20260505213705 | 16 | 0.0 | 0.0 | 0.03 | 0.30 | 0.30 | 77 | 998.5 | |
| 20260505213213 | 17 | 0.0 | 0.0 | 0.03 | 0.30 | 0.30 | 76 | 998.3 | |
| 20260505213206 | 17 | 0.0 | 0.0 | 0.03 | 0.30 | 0.30 | 76 | 998.3 | |
| 20260505212720 | 17 | 0.0 | 0.0 | 0.03 | 0.30 | 0.30 | 73 | 998.3 | |
| 20260505212205 | 18 | 0.0 | 0.0 | 0.03 | 0.30 | 0.30 | 70 | 998.2 | |
| 20260505211713 | 20 | 0.0 | 0.0 | 0.00 | 0.28 | 0.28 | 65 | 998.3 | |
| 20260505211705 | 20 | 0.0 | 0.0 | 0.00 | 0.28 | 0.28 | 65 | 998.3 | |
| 20260505211206 | 20 | 0.0 | 0.0 | 0.00 | 0.28 | 0.28 | 61 | 997.3 | |
| 20260505210714 | 21 | 0.0 | 0.0 | 0.00 | 0.28 | 0.28 | 60 | 996.7 | |
| 20260505210706 | 21 | 0.0 | 0.0 | 0.00 | 0.28 | 0.28 | 60 | 996.7 | |
| 20260505210206 | 21 | 0.0 | 0.0 | 0.00 | 0.28 | 0.28 | 60 | 996.6 | |
| 20260505205712 | 21 | 0.0 | 0.0 | 0.00 | 0.28 | 0.28 | 61 | 996.5 | |
| 20260505205705 | 21 | 0.0 | 0.0 | 0.00 | 0.28 | 0.28 | 61 | 996.5 | |
| 20260505205217 | 21 | 0.0 | 0.0 | 0.00 | 0.28 | 0.28 | 63 | 996.6 | |
| 20260505205210 | 21 | 0.0 | 0.0 | 0.00 | 0.28 | 0.28 | 63 | 996.6 | |
| 20260505204712 | 20 | 0.0 | 0.0 | 0.00 | 0.28 | 0.28 | 65 | 996.6 | |
| 20260505204705 | 20 | 0.0 | 0.0 | 0.00 | 0.28 | 0.28 | 65 | 996.6 | |
| 20260505204213 | 20 | 0.0 | 0.0 | 0.00 | 0.28 | 0.28 | 66 | 996.6 | |
| 20260505204206 | 20 | 0.0 | 0.0 | 0.00 | 0.28 | 0.28 | 66 | 996.6 | |
| 20260505203712 | 20 | 0.0 | 0.0 | 0.00 | 0.28 | 0.28 | 66 | 996.8 | |
| 20260505203705 | 20 | 0.0 | 0.0 | 0.00 | 0.28 | 0.28 | 66 | 996.8 | |
| 20260505203212 | 20 | 0.0 | 0.0 | 0.00 | 0.28 | 0.28 | 66 | 996.9 | |
| 20260505203206 | 20 | 0.0 | 0.0 | 0.00 | 0.28 | 0.28 | 66 | 996.9 | |
| 20260505202705 | 20 | 0.0 | 0.0 | 0.00 | 0.28 | 0.28 | 68 | 996.8 | |
| 20260505202229 | 20 | 0.0 | 0.0 | 0.00 | 0.28 | 0.28 | 69 | 996.6 | |
| 20260505201705 | 20 | 0.0 | 0.0 | 0.00 | 0.28 | 0.28 | 70 | 996.7 | |
| 20260505201213 | 20 | 0.0 | 0.0 | 0.00 | 0.28 | 0.28 | 72 | 996.8 | |
| 20260505201206 | 20 | 0.0 | 0.0 | 0.00 | 0.28 | 0.28 | 72 | 996.8 | |
| 20260505200706 | 20 | 0.0 | 0.0 | 0.00 | 0.28 | 0.28 | 74 | 996.9 | |
| 20260505200213 | 19 | 0.0 | 0.0 | 0.00 | 0.28 | 0.28 | 77 | 996.9 | |
| 20260505200206 | 19 | 0.0 | 0.0 | 0.00 | 0.28 | 0.28 | 77 | 996.9 | |
| 20260505195712 | 19 | 0.0 | 0.0 | 0.00 | 0.28 | 0.28 | 77 | 996.9 | |
| 20260505195705 | 19 | 0.0 | 0.0 | 0.00 | 0.28 | 0.28 | 77 | 996.9 | |
| 20260505195212 | 19 | 0.0 | 0.0 | 0.00 | 0.28 | 0.28 | 77 | 997.2 | |
| 20260505195205 | 19 | 0.0 | 0.0 | 0.00 | 0.28 | 0.28 | 77 | 997.2 | |
| 20260505194714 | 18 | 0.0 | 0.0 | 0.00 | 0.28 | 0.28 | 79 | 997.3 | |
| 20260505194707 | 18 | 0.0 | 0.0 | 0.00 | 0.28 | 0.28 | 79 | 997.3 | |
| 20260505194214 | 18 | 0.0 | 0.0 | 0.00 | 0.28 | 0.28 | 78 | 997.5 | |
| 20260505194207 | 18 | 0.0 | 0.0 | 0.00 | 0.28 | 0.28 | 78 | 997.5 | |
| 20260505193712 | 19 | 0.0 | 0.0 | 0.00 | 0.28 | 0.28 | 79 | 997.6 | |
| 20260505193705 | 19 | 0.0 | 0.0 | 0.00 | 0.28 | 0.28 | 79 | 997.6 | |
| 20260505193213 | 19 | 0.0 | 0.0 | 0.00 | 0.28 | 0.28 | 81 | 997.5 | |
| 20260505193206 | 19 | 0.0 | 0.0 | 0.00 | 0.28 | 0.28 | 81 | 997.5 | |
| 20260505192714 | 18 | 0.0 | 0.0 | 0.00 | 0.28 | 0.28 | 83 | 997.7 | |
| 20260505192707 | 18 | 0.0 | 0.0 | 0.00 | 0.28 | 0.28 | 83 | 997.7 | |
| 20260505191713 | 18 | 0.0 | 0.0 | 0.00 | 0.28 | 0.28 | 86 | 997.8 | |
| 20260505191705 | 18 | 0.0 | 0.0 | 0.00 | 0.28 | 0.28 | 86 | 997.8 | |
| 20260505191229 | 18 | 0.0 | 0.0 | 0.00 | 0.28 | 0.28 | 87 | 998.0 | |
| 20260505190712 | 17 | 0.0 | 0.0 | 0.00 | 0.28 | 0.28 | 88 | 998.2 | |
| 20260505190705 | 17 | 0.0 | 0.0 | 0.00 | 0.28 | 0.28 | 88 | 998.2 | |
| 20260505190212 | 17 | 0.0 | 0.0 | 0.00 | 0.28 | 0.28 | 90 | 998.2 | |
| 20260505190205 | 17 | 0.0 | 0.0 | 0.00 | 0.28 | 0.28 | 90 | 998.2 | |
| 20260505185714 | 16 | 0.0 | 0.0 | 0.00 | 0.28 | 0.28 | 91 | 998.3 | |
| 20260505185707 | 16 | 0.0 | 0.0 | 0.00 | 0.28 | 0.28 | 91 | 998.3 | |
| 20260505185213 | 16 | 0.0 | 0.0 | 0.00 | 0.28 | 0.28 | 90 | 998.2 | |
| 20260505185206 | 16 | 0.0 | 0.0 | 0.00 | 0.28 | 0.28 | 90 | 998.2 | |
| 20260505184732 | 16 | 0.0 | 0.0 | 0.03 | 0.28 | 0.28 | 91 | 998.2 | |
| 20260505184207 | 16 | 0.0 | 0.0 | 0.03 | 0.28 | 0.28 | 91 | 998.3 | |
| 20260505183718 | 16 | 0.0 | 0.0 | 0.05 | 0.28 | 0.28 | 91 | 998.5 | |
| 20260505183710 | 16 | 0.0 | 0.0 | 0.05 | 0.28 | 0.28 | 91 | 998.5 | |
| 20260505183212 | 15 | 0.0 | 0.0 | 0.05 | 0.28 | 0.28 | 91 | 998.5 | |
| 20260505183205 | 15 | 0.0 | 0.0 | 0.05 | 0.28 | 0.28 | 91 | 998.5 | |
| 20260505182713 | 15 | 0.0 | 0.0 | 0.10 | 0.28 | 0.28 | 91 | 998.5 | |
| 20260505182705 | 15 | 0.0 | 0.0 | 0.10 | 0.28 | 0.28 | 91 | 998.5 | |
| 20260505182213 | 15 | 0.0 | 0.0 | 0.10 | 0.28 | 0.28 | 91 | 998.6 | |
| 20260505182205 | 15 | 0.0 | 0.0 | 0.10 | 0.28 | 0.28 | 91 | 998.6 | |
| 20260505181712 | 15 | 0.0 | 0.0 | 0.13 | 0.28 | 0.28 | 91 | 998.7 | |
| 20260505181705 | 15 | 0.0 | 0.0 | 0.13 | 0.28 | 0.28 | 91 | 998.7 | |
| 20260505181213 | 15 | 0.0 | 0.0 | 0.15 | 0.28 | 0.28 | 91 | 998.7 | |
| 20260505181206 | 15 | 0.0 | 0.0 | 0.15 | 0.28 | 0.28 | 91 | 998.7 | |
| 20260505180706 | 15 | 0.0 | 0.0 | 0.15 | 0.28 | 0.28 | 90 | 998.9 | |
| 20260505180212 | 15 | 0.0 | 0.0 | 0.15 | 0.28 | 0.28 | 90 | 998.9 | |
| 20260505180205 | 15 | 0.0 | 0.0 | 0.15 | 0.28 | 0.28 | 90 | 998.9 | |
| 20260505175714 | 15 | 0.0 | 0.0 | 0.15 | 0.28 | 0.28 | 90 | 998.8 | |
| 20260505175706 | 15 | 0.0 | 0.0 | 0.15 | 0.28 | 0.28 | 90 | 998.8 | |
| 20260505175212 | 15 | 0.0 | 0.0 | 0.15 | 0.28 | 0.28 | 89 | 999.0 | |
| 20260505175205 | 15 | 0.0 | 0.0 | 0.15 | 0.28 | 0.28 | 89 | 999.0 | |
| 20260505174734 | 15 | 0.0 | 0.0 | 0.15 | 0.25 | 0.25 | 89 | 999.2 | |
| 20260505174206 | 15 | 0.0 | 0.0 | 0.15 | 0.25 | 0.25 | 89 | 999.2 | |
| 20260505173705 | 15 | 0.0 | 0.0 | 0.15 | 0.23 | 0.23 | 88 | 999.2 | |
| 20260505173213 | 15 | 0.0 | 0.0 | 0.20 | 0.20 | 0.20 | 87 | 999.1 | |
| 20260505173206 | 15 | 0.0 | 0.0 | 0.20 | 0.20 | 0.20 | 87 | 999.1 | |
| 20260505172713 | 15 | 0.0 | 0.0 | 0.18 | 0.18 | 0.18 | 87 | 999.1 | |
| 20260505172705 | 15 | 0.0 | 0.0 | 0.18 | 0.18 | 0.18 | 87 | 999.1 | |
| 20260505172213 | 15 | 0.0 | 0.0 | 0.18 | 0.18 | 0.18 | 86 | 998.9 | |
| 20260505172205 | 15 | 0.0 | 0.0 | 0.18 | 0.18 | 0.18 | 86 | 998.9 | |
| 20260505171713 | 15 | 0.0 | 0.0 | 0.15 | 0.15 | 0.15 | 85 | 998.9 | |
| 20260505171706 | 15 | 0.0 | 0.0 | 0.15 | 0.15 | 0.15 | 85 | 998.9 | |
| 20260505171213 | 15 | 0.0 | 0.0 | 0.15 | 0.15 | 0.15 | 84 | 998.9 | |
| 20260505171206 | 15 | 0.0 | 0.0 | 0.15 | 0.15 | 0.15 | 84 | 998.9 | |
| 20260505170714 | 15 | 0.0 | 0.0 | 0.15 | 0.15 | 0.15 | 84 | 998.7 | |
| 20260505170707 | 15 | 0.0 | 0.0 | 0.15 | 0.15 | 0.15 | 84 | 998.7 | |
| 20260505170229 | 15 | 0.0 | 0.0 | 0.15 | 0.15 | 0.15 | 82 | 998.7 | |
| 20260505165712 | 15 | 0.0 | 0.0 | 0.15 | 0.15 | 0.15 | 81 | 998.7 | |
| 20260505165705 | 15 | 0.0 | 0.0 | 0.15 | 0.15 | 0.15 | 81 | 998.7 | |
| 20260505165212 | 16 | 0.0 | 0.0 | 0.13 | 0.13 | 0.13 | 79 | 998.9 | |
| 20260505165205 | 16 | 0.0 | 0.0 | 0.13 | 0.13 | 0.13 | 79 | 998.9 | |
| 20260505164712 | 16 | 0.0 | 0.0 | 0.13 | 0.13 | 0.13 | 77 | 999.1 | |
| 20260505164705 | 16 | 0.0 | 0.0 | 0.13 | 0.13 | 0.13 | 77 | 999.1 | |
| 20260505164222 | 16 | 0.0 | 0.0 | 0.13 | 0.13 | 0.13 | 75 | 999.3 | |
| 20260505163712 | 16 | 0.0 | 0.0 | 0.05 | 0.05 | 0.05 | 74 | 999.4 | |
| 20260505163705 | 16 | 0.0 | 0.0 | 0.05 | 0.05 | 0.05 | 74 | 999.4 | |
| 20260505163212 | 16 | 0.0 | 0.0 | 0.00 | 0.00 | 0.00 | 72 | 999.4 | |
| 20260505163205 | 16 | 0.0 | 0.0 | 0.00 | 0.00 | 0.00 | 72 | 999.4 | |
| 20260505162717 | 16 | 0.0 | 0.0 | 0.00 | 0.00 | 0.00 | 72 | 999.2 | |
| 20260505162710 | 16 | 0.0 | 0.0 | 0.00 | 0.00 | 0.00 | 72 | 999.2 | |
| 20260505162214 | 17 | 0.0 | 0.0 | 0.00 | 0.00 | 0.00 | 72 | 999.3 | |
| 20260505162207 | 17 | 0.0 | 0.0 | 0.00 | 0.00 | 0.00 | 72 | 999.3 | |
| 20260505161714 | 17 | 0.0 | 0.0 | 0.00 | 0.00 | 0.00 | 72 | 999.5 | |
| 20260505161707 | 17 | 0.0 | 0.0 | 0.00 | 0.00 | 0.00 | 72 | 999.5 | |
| 20260505161205 | 17 | 0.0 | 0.0 | 0.00 | 0.00 | 0.00 | 72 | 999.4 | |
| 20260505160713 | 17 | 0.0 | 0.0 | 0.00 | 0.00 | 0.00 | 72 | 999.6 | |
| 20260505160706 | 17 | 0.0 | 0.0 | 0.00 | 0.00 | 0.00 | 72 | 999.6 | |
| 20260505160214 | 17 | 0.0 | 0.0 | 0.00 | 0.00 | 0.00 | 71 | 999.8 | |
| 20260505160207 | 17 | 0.0 | 0.0 | 0.00 | 0.00 | 0.00 | 71 | 999.8 | |
| 20260505152706 | 19 | 0.0 | 0.0 | 0.00 | 0.03 | 0.00 | 65 | 999.6 | |
| 20260505152213 | 19 | 0.0 | 0.0 | 0.00 | 0.05 | 0.00 | 63 | 999.7 | |
| 20260505152206 | 19 | 0.0 | 0.0 | 0.00 | 0.05 | 0.00 | 63 | 999.7 | |
| 20260505151714 | 19 | 0.0 | 0.0 | 0.00 | 0.05 | 0.00 | 63 | 999.6 | |
| 20260505151707 | 19 | 0.0 | 0.0 | 0.00 | 0.05 | 0.00 | 63 | 999.6 | |
| 20260505151213 | 18 | 0.0 | 0.0 | 0.00 | 0.05 | 0.00 | 62 | 999.8 | |
| 20260505151206 | 18 | 0.0 | 0.0 | 0.00 | 0.05 | 0.00 | 62 | 999.8 | |
| 20260505150714 | 18 | 0.0 | 0.0 | 0.00 | 0.05 | 0.00 | 63 | 999.9 | |
| 20260505150707 | 18 | 0.0 | 0.0 | 0.00 | 0.05 | 0.00 | 63 | 999.9 | |
| 20260505150213 | 17 | 0.0 | 0.0 | 0.00 | 0.08 | 0.00 | 63 | 1000.0 | |
| 20260505150206 | 17 | 0.0 | 0.0 | 0.00 | 0.08 | 0.00 | 63 | 1000.0 | |
| 20260505140226 | 16 | 0.0 | 0.0 | 0.00 | 0.23 | 0.00 | 67 | 1000.2 | |
| 20260505130213 | 13 | 0.0 | 0.0 | 0.00 | 0.23 | 0.00 | 72 | 1000.7 | |
| 20260505130205 | 13 | 0.0 | 0.0 | 0.00 | 0.23 | 0.00 | 72 | 1000.7 | |
| 20260505124705 | 13 | 0.0 | 0.0 | 0.00 | 0.23 | 0.00 | 74 | 1000.5 | |
| 20260505124206 | 12 | 0.0 | 0.0 | 0.00 | 0.23 | 0.00 | 76 | 1000.6 | |
| 20260505123711 | 12 | 0.0 | 0.0 | 0.00 | 0.23 | 0.00 | 78 | 1000.7 | |
| 20260505123213 | 12 | 0.0 | 0.0 | 0.00 | 0.23 | 0.00 | 80 | 1000.7 | |
| 20260505123206 | 12 | 0.0 | 0.0 | 0.00 | 0.23 | 0.00 | 80 | 1000.7 | |
| 20260505122740 | 11 | 0.0 | 0.0 | 0.00 | 0.23 | 0.00 | 81 | 1000.9 | |
| 20260505122733 | 11 | 0.0 | 0.0 | 0.00 | 0.23 | 0.00 | 81 | 1000.9 | |
| 20260505122206 | 11 | 0.0 | 0.0 | 0.00 | 0.23 | 0.00 | 82 | 1000.9 | |
| 20260505121707 | 11 | 0.0 | 0.0 | 0.00 | 0.23 | 0.00 | 83 | 1000.9 | |
| 20260505121212 | 11 | 0.0 | 0.0 | 0.00 | 0.23 | 0.00 | 84 | 1001.0 | |
| 20260505121206 | 11 | 0.0 | 0.0 | 0.00 | 0.23 | 0.00 | 84 | 1001.0 | |
| 20260505120713 | 10 | 0.0 | 0.0 | 0.00 | 0.23 | 0.00 | 84 | 1001.1 | |
| 20260505120706 | 10 | 0.0 | 0.0 | 0.00 | 0.23 | 0.00 | 84 | 1001.1 | |
| 20260505120213 | 10 | 0.0 | 0.0 | 0.00 | 0.23 | 0.00 | 85 | 1001.1 | |
| 20260505120206 | 10 | 0.0 | 0.0 | 0.00 | 0.23 | 0.00 | 85 | 1001.1 | |
| 20260505115713 | 10 | 0.0 | 0.0 | 0.00 | 0.23 | 0.00 | 86 | 1001.2 | |
| 20260505115705 | 10 | 0.0 | 0.0 | 0.00 | 0.23 | 0.00 | 86 | 1001.2 | |
| 20260505115223 | 10 | 0.0 | 0.0 | 0.00 | 0.23 | 0.00 | 87 | 1001.3 | |
| 20260505114727 | 10 | 0.0 | 0.0 | 0.00 | 0.23 | 0.00 | 88 | 1001.2 | |
| 20260505114232 | 10 | 0.0 | 0.0 | 0.00 | 0.23 | 0.00 | 89 | 1001.2 | |
| 20260505113712 | 9 | 0.0 | 0.0 | 0.00 | 0.23 | 0.00 | 90 | 1001.2 | |
| 20260505113705 | 9 | 0.0 | 0.0 | 0.00 | 0.23 | 0.00 | 90 | 1001.2 | |
| 20260505113213 | 9 | 0.0 | 0.0 | 0.00 | 0.23 | 0.00 | 91 | 1001.2 | |
| 20260505113206 | 9 | 0.0 | 0.0 | 0.00 | 0.23 | 0.00 | 91 | 1001.2 | |
| 20260505112712 | 8 | 0.0 | 0.0 | 0.00 | 0.23 | 0.00 | 91 | 1001.3 | |
| 20260505112706 | 8 | 0.0 | 0.0 | 0.00 | 0.23 | 0.00 | 91 | 1001.3 | |
| 20260505112213 | 8 | 0.0 | 0.0 | 0.00 | 0.23 | 0.00 | 92 | 1001.3 | |
| 20260505112206 | 8 | 0.0 | 0.0 | 0.00 | 0.23 | 0.00 | 92 | 1001.3 | |
| 20260505111729 | 8 | 0.0 | 0.0 | 0.00 | 0.23 | 0.00 | 92 | 1001.2 | |
| 20260505111212 | 8 | 0.0 | 0.0 | 0.00 | 0.23 | 0.00 | 92 | 1001.2 | |
| 20260505111205 | 8 | 0.0 | 0.0 | 0.00 | 0.23 | 0.00 | 92 | 1001.2 | |
| 20260505110729 | 7 | 0.0 | 0.0 | 0.00 | 0.23 | 0.00 | 92 | 1001.1 | |
| 20260505110239 | 7 | 0.0 | 0.0 | 0.00 | 0.23 | 0.00 | 92 | 1001.2 | |
| 20260505110232 | 7 | 0.0 | 0.0 | 0.00 | 0.23 | 0.00 | 92 | 1001.2 | |
| 20260505102214 | 6 | 0.0 | 0.0 | 0.00 | 0.23 | 0.00 | 92 | 1001.1 | |
| 20260505102207 | 6 | 0.0 | 0.0 | 0.00 | 0.23 | 0.00 | 92 | 1001.1 | |
| 20260505101714 | 6 | 0.0 | 0.0 | 0.00 | 0.23 | 0.00 | 92 | 1001.2 | |
| 20260505101707 | 6 | 0.0 | 0.0 | 0.00 | 0.23 | 0.00 | 92 | 1001.2 | |
| 20260505101238 | 6 | 0.0 | 0.0 | 0.00 | 0.23 | 0.00 | 92 | 1001.4 | |
| 20260505101231 | 6 | 0.0 | 0.0 | 0.00 | 0.23 | 0.00 | 92 | 1001.4 | |
| 20260505100712 | 5 | 0.0 | 0.0 | 0.00 | 0.23 | 0.00 | 92 | 1001.6 | |
| 20260505100705 | 5 | 0.0 | 0.0 | 0.00 | 0.23 | 0.00 | 92 | 1001.6 | |
| 20260505100254 | 5 | 0.0 | 0.0 | 0.00 | 0.23 | 0.00 | 92 | 1001.6 | |
| 20260505095714 | 5 | 0.0 | 0.0 | 0.00 | 0.23 | 0.00 | 92 | 1001.6 | |
| 20260505095707 | 5 | 0.0 | 0.0 | 0.00 | 0.23 | 0.00 | 92 | 1001.6 | |
| 20260505095214 | 5 | 0.0 | 0.0 | 0.00 | 0.23 | 0.00 | 92 | 1001.5 | |
| 20260505095206 | 5 | 0.0 | 0.0 | 0.00 | 0.23 | 0.00 | 92 | 1001.5 | |
| 20260505094715 | 5 | 0.0 | 0.0 | 0.00 | 0.23 | 0.00 | 92 | 1001.7 | |
| 20260505094708 | 5 | 0.0 | 0.0 | 0.00 | 0.23 | 0.00 | 92 | 1001.7 | |
| 20260505094213 | 5 | 0.0 | 0.0 | 0.00 | 0.23 | 0.00 | 92 | 1001.6 | |
| 20260505094206 | 5 | 0.0 | 0.0 | 0.00 | 0.23 | 0.00 | 92 | 1001.6 | |
| 20260505093713 | 5 | 0.0 | 0.0 | 0.00 | 0.23 | 0.00 | 91 | 1001.5 | |
| 20260505093706 | 5 | 0.0 | 0.0 | 0.00 | 0.23 | 0.00 | 91 | 1001.5 | |
| 20260505093234 | 5 | 0.0 | 0.0 | 0.00 | 0.23 | 0.00 | 91 | 1001.5 | |
| 20260505092712 | 5 | 0.0 | 0.0 | 0.00 | 0.23 | 0.00 | 91 | 1001.6 | |
| 20260505092705 | 5 | 0.0 | 0.0 | 0.00 | 0.23 | 0.00 | 91 | 1001.6 | |
| 20260505092213 | 5 | 0.0 | 0.0 | 0.00 | 0.23 | 0.00 | 91 | 1001.8 | |
| 20260505092206 | 5 | 0.0 | 0.0 | 0.00 | 0.23 | 0.00 | 91 | 1001.8 | |
| 20260505091713 | 5 | 0.0 | 0.0 | 0.00 | 0.23 | 0.00 | 91 | 1001.8 | |
| 20260505091706 | 5 | 0.0 | 0.0 | 0.00 | 0.23 | 0.00 | 91 | 1001.8 | |
| 20260505091213 | 5 | 0.0 | 0.0 | 0.00 | 0.23 | 0.00 | 91 | 1001.8 | |
| 20260505091206 | 5 | 0.0 | 0.0 | 0.00 | 0.23 | 0.00 | 91 | 1001.8 | |
| 20260505090712 | 5 | 0.0 | 0.0 | 0.00 | 0.23 | 0.00 | 91 | 1001.7 | |
| 20260505090705 | 5 | 0.0 | 0.0 | 0.00 | 0.23 | 0.00 | 91 | 1001.7 | |
| 20260505090206 | 5 | 0.0 | 0.0 | 0.00 | 0.23 | 0.00 | 91 | 1001.8 | |
| 20260505085712 | 5 | 0.0 | 0.0 | 0.00 | 0.23 | 0.00 | 91 | 1001.9 | |
| 20260505085705 | 5 | 0.0 | 0.0 | 0.00 | 0.23 | 0.00 | 91 | 1001.9 | |
| 20260505085213 | 6 | 0.0 | 0.0 | 0.00 | 0.23 | 0.00 | 91 | 1001.7 | |
| 20260505085206 | 6 | 0.0 | 0.0 | 0.00 | 0.23 | 0.00 | 91 | 1001.7 | |
| 20260505084712 | 6 | 0.0 | 0.0 | 0.00 | 0.23 | 0.00 | 91 | 1001.7 | |
| 20260505084705 | 6 | 0.0 | 0.0 | 0.00 | 0.23 | 0.00 | 91 | 1001.7 | |
| 20260505084213 | 6 | 0.0 | 0.0 | 0.00 | 0.23 | 0.00 | 91 | 1001.7 | |
| 20260505084206 | 6 | 0.0 | 0.0 | 0.00 | 0.23 | 0.00 | 91 | 1001.7 | |
| 20260505083712 | 6 | 0.0 | 0.0 | 0.00 | 0.23 | 0.00 | 91 | 1001.8 | |
| 20260505083705 | 6 | 0.0 | 0.0 | 0.00 | 0.23 | 0.00 | 91 | 1001.8 | |
| 20260505083212 | 6 | 0.0 | 0.0 | 0.00 | 0.23 | 0.00 | 91 | 1001.7 | |
| 20260505083205 | 6 | 0.0 | 0.0 | 0.00 | 0.23 | 0.00 | 91 | 1001.7 | |
| 20260505082713 | 6 | 0.0 | 0.0 | 0.00 | 0.23 | 0.00 | 91 | 1001.7 | |
| 20260505082705 | 6 | 0.0 | 0.0 | 0.00 | 0.23 | 0.00 | 91 | 1001.7 | |
| 20260505082213 | 6 | 0.0 | 0.0 | 0.00 | 0.23 | 0.00 | 91 | 1001.9 | |
| 20260505082206 | 6 | 0.0 | 0.0 | 0.00 | 0.23 | 0.00 | 91 | 1001.9 | |
| 20260505081705 | 6 | 0.0 | 0.0 | 0.00 | 0.23 | 0.00 | 91 | 1001.9 | |
| 20260505081212 | 6 | 0.0 | 0.0 | 0.00 | 0.23 | 0.00 | 91 | 1002.0 | |
| 20260505081205 | 6 | 0.0 | 0.0 | 0.00 | 0.23 | 0.00 | 91 | 1002.0 | |
| 20260505080712 | 6 | 0.0 | 0.0 | 0.00 | 0.23 | 0.00 | 91 | 1001.9 | |
| 20260505080705 | 6 | 0.0 | 0.0 | 0.00 | 0.23 | 0.00 | 91 | 1001.9 | |
| 20260505080212 | 6 | 0.0 | 0.0 | 0.00 | 0.23 | 0.00 | 91 | 1002.0 | |
| 20260505080205 | 6 | 0.0 | 0.0 | 0.00 | 0.23 | 0.00 | 91 | 1002.0 | |
| 20260505075707 | 6 | 0.0 | 0.0 | 0.00 | 0.23 | 0.00 | 91 | 1002.0 | |
| 20260505075235 | 6 | 0.0 | 0.0 | 0.00 | 0.23 | 0.00 | 91 | 1002.2 | |
| 20260505074713 | 6 | 0.0 | 0.0 | 0.00 | 0.23 | 0.00 | 91 | 1002.2 | |
| 20260505074706 | 6 | 0.0 | 0.0 | 0.00 | 0.23 | 0.00 | 91 | 1002.2 | |
| 20260505074213 | 6 | 0.0 | 0.0 | 0.00 | 0.23 | 0.00 | 91 | 1002.1 | |
| 20260505074206 | 6 | 0.0 | 0.0 | 0.00 | 0.23 | 0.00 | 91 | 1002.1 | |
| 20260505073712 | 6 | 0.0 | 0.0 | 0.00 | 0.23 | 0.00 | 91 | 1002.2 | |
| 20260505073705 | 6 | 0.0 | 0.0 | 0.00 | 0.23 | 0.00 | 91 | 1002.2 | |
| 20260505073212 | 6 | 0.0 | 0.0 | 0.00 | 0.23 | 0.00 | 91 | 1002.3 | |
| 20260505073205 | 6 | 0.0 | 0.0 | 0.00 | 0.23 | 0.00 | 91 | 1002.3 | |
| 20260505072706 | 6 | 0.0 | 0.0 | 0.00 | 0.23 | 0.00 | 90 | 1002.2 | |
| 20260505072206 | 6 | 0.0 | 0.0 | 0.00 | 0.23 | 0.00 | 90 | 1002.2 | |
| 20260505071734 | 6 | 0.0 | 0.0 | 0.00 | 0.23 | 0.00 | 90 | 1002.1 | |
| 20260505071213 | 6 | 0.0 | 0.0 | 0.00 | 0.23 | 0.00 | 90 | 1002.1 | |
| 20260505071206 | 6 | 0.0 | 0.0 | 0.00 | 0.23 | 0.00 | 90 | 1002.1 | |
| 20260505070714 | 6 | 0.0 | 0.0 | 0.00 | 0.23 | 0.00 | 90 | 1002.1 | |
| 20260505070707 | 6 | 0.0 | 0.0 | 0.00 | 0.23 | 0.00 | 90 | 1002.1 | |
| 20260505070213 | 6 | 0.0 | 0.0 | 0.00 | 0.23 | 0.00 | 90 | 1002.2 | |
| 20260505070206 | 6 | 0.0 | 0.0 | 0.00 | 0.23 | 0.00 | 90 | 1002.2 | |
| 20260505065705 | 6 | 0.0 | 0.0 | 0.00 | 0.23 | 0.00 | 90 | 1002.3 | |
| 20260505065206 | 6 | 0.0 | 0.0 | 0.00 | 0.23 | 0.00 | 89 | 1002.5 | |
| 20260505064712 | 6 | 0.0 | 0.0 | 0.00 | 0.23 | 0.00 | 89 | 1002.4 | |
| 20260505064705 | 6 | 0.0 | 0.0 | 0.00 | 0.23 | 0.00 | 89 | 1002.4 | |
| 20260505064206 | 6 | 0.0 | 0.0 | 0.00 | 0.23 | 0.00 | 89 | 1002.4 | |
| 20260505063705 | 6 | 0.0 | 0.0 | 0.00 | 0.23 | 0.00 | 89 | 1002.5 | |
| 20260505063214 | 6 | 0.0 | 0.0 | 0.00 | 0.23 | 0.00 | 89 | 1002.6 | |
| 20260505063207 | 6 | 0.0 | 0.0 | 0.00 | 0.23 | 0.00 | 89 | 1002.6 | |
| 20260505062710 | 6 | 0.0 | 0.0 | 0.00 | 0.23 | 0.00 | 89 | 1002.6 | |
| 20260505062235 | 6 | 0.0 | 0.0 | 0.00 | 0.23 | 0.00 | 89 | 1002.6 | |
| 20260505061712 | 6 | 0.0 | 0.0 | 0.00 | 0.23 | 0.00 | 89 | 1002.7 | |
| 20260505061705 | 6 | 0.0 | 0.0 | 0.00 | 0.23 | 0.00 | 89 | 1002.7 | |
| 20260505061212 | 6 | 0.0 | 0.0 | 0.00 | 0.23 | 0.00 | 89 | 1002.8 | |
| 20260505061205 | 6 | 0.0 | 0.0 | 0.00 | 0.23 | 0.00 | 89 | 1002.8 | |
| 20260505060713 | 6 | 0.0 | 0.0 | 0.00 | 0.23 | 0.00 | 89 | 1002.8 | |
| 20260505060706 | 6 | 0.0 | 0.0 | 0.00 | 0.23 | 0.00 | 89 | 1002.8 | |
| 20260505060213 | 6 | 0.0 | 0.0 | 0.00 | 0.23 | 0.00 | 89 | 1002.9 | |
| 20260505060206 | 6 | 0.0 | 0.0 | 0.00 | 0.23 | 0.00 | 89 | 1002.9 | |
| 20260505055205 | 6 | 0.0 | 0.0 | 0.00 | 0.23 | 0.00 | 88 | 1003.2 | |
| 20260505054731 | 6 | 0.0 | 0.0 | 0.00 | 0.23 | 0.00 | 88 | 1003.2 | |
| 20260505054215 | 6 | 0.0 | 0.0 | 0.00 | 0.23 | 0.00 | 89 | 1003.3 | |
| 20260505054208 | 6 | 0.0 | 0.0 | 0.00 | 0.23 | 0.00 | 89 | 1003.3 | |
| 20260505053734 | 6 | 0.0 | 0.0 | 0.00 | 0.23 | 0.00 | 89 | 1003.4 | |
| 20260505053214 | 7 | 0.0 | 0.0 | 0.00 | 0.23 | 0.00 | 88 | 1003.5 | |
| 20260505053207 | 7 | 0.0 | 0.0 | 0.00 | 0.23 | 0.00 | 88 | 1003.5 | |
| 20260505052713 | 7 | 0.0 | 0.0 | 0.00 | 0.23 | 0.00 | 88 | 1003.5 | |
| 20260505052706 | 7 | 0.0 | 0.0 | 0.00 | 0.23 | 0.00 | 88 | 1003.5 | |
| 20260505052212 | 7 | 0.0 | 0.0 | 0.00 | 0.23 | 0.00 | 88 | 1003.5 | |
| 20260505052205 | 7 | 0.0 | 0.0 | 0.00 | 0.23 | 0.00 | 88 | 1003.5 | |
| 20260505051732 | 7 | 0.0 | 0.0 | 0.00 | 0.23 | 0.00 | 88 | 1003.6 | |
| 20260505051213 | 7 | 0.0 | 0.0 | 0.00 | 0.23 | 0.00 | 88 | 1003.6 | |
| 20260505051206 | 7 | 0.0 | 0.0 | 0.00 | 0.23 | 0.00 | 88 | 1003.6 | |
| 20260505050712 | 7 | 0.0 | 0.0 | 0.00 | 0.23 | 0.00 | 88 | 1003.6 | |
| 20260505050705 | 7 | 0.0 | 0.0 | 0.00 | 0.23 | 0.00 | 88 | 1003.6 | |
| 20260505050214 | 7 | 0.0 | 0.0 | 0.00 | 0.23 | 0.00 | 88 | 1003.7 | |
| 20260505050207 | 7 | 0.0 | 0.0 | 0.00 | 0.23 | 0.00 | 88 | 1003.7 | |
| 20260505041713 | 7 | 0.0 | 0.0 | 0.00 | 0.23 | 0.00 | 87 | 1004.1 | |
| 20260505041706 | 7 | 0.0 | 0.0 | 0.00 | 0.23 | 0.00 | 87 | 1004.1 | |
| 20260505041212 | 7 | 0.0 | 0.0 | 0.00 | 0.23 | 0.00 | 87 | 1004.2 | |
| 20260505041205 | 7 | 0.0 | 0.0 | 0.00 | 0.23 | 0.00 | 87 | 1004.2 | |
| 20260505040706 | 7 | 0.0 | 0.0 | 0.00 | 0.23 | 0.00 | 86 | 1004.2 | |
| 20260505040223 | 7 | 0.0 | 0.0 | 0.00 | 0.23 | 0.23 | 86 | 1004.1 | |
| 20260505035712 | 7 | 0.0 | 0.0 | 0.00 | 0.23 | 0.23 | 86 | 1004.2 | |
| 20260505035705 | 7 | 0.0 | 0.0 | 0.00 | 0.23 | 0.23 | 86 | 1004.2 | |
| 20260505035229 | 7 | 0.0 | 0.0 | 0.00 | 0.23 | 0.23 | 86 | 1004.2 | |
| 20260505034712 | 7 | 0.0 | 0.0 | 0.00 | 0.23 | 0.23 | 86 | 1004.3 | |
| 20260505034705 | 7 | 0.0 | 0.0 | 0.00 | 0.23 | 0.23 | 86 | 1004.3 | |
| 20260505034206 | 7 | 0.0 | 0.0 | 0.00 | 0.23 | 0.23 | 86 | 1004.4 | |
| 20260505033705 | 7 | 0.0 | 0.0 | 0.00 | 0.23 | 0.23 | 86 | 1004.4 | |
| 20260505033213 | 7 | 0.0 | 0.0 | 0.00 | 0.23 | 0.23 | 86 | 1004.2 | |
| 20260505033206 | 7 | 0.0 | 0.0 | 0.00 | 0.23 | 0.23 | 86 | 1004.2 | |
| 20260505032706 | 7 | 0.0 | 0.0 | 0.00 | 0.23 | 0.23 | 85 | 1004.3 | |
| 20260505032223 | 7 | 0.0 | 0.0 | 0.00 | 0.23 | 0.23 | 85 | 1004.4 | |
| 20260505031713 | 7 | 0.0 | 0.0 | 0.00 | 0.23 | 0.23 | 85 | 1004.5 | |
| 20260505031706 | 7 | 0.0 | 0.0 | 0.00 | 0.23 | 0.23 | 85 | 1004.5 | |
| 20260505031205 | 7 | 0.0 | 0.0 | 0.00 | 0.23 | 0.23 | 85 | 1004.5 | |
| 20260505030713 | 7 | 0.0 | 0.0 | 0.00 | 0.23 | 0.23 | 85 | 1004.6 | |
| 20260505030706 | 7 | 0.0 | 0.0 | 0.00 | 0.23 | 0.23 | 85 | 1004.6 | |
| 20260505030229 | 7 | 0.0 | 0.0 | 0.00 | 0.23 | 0.23 | 85 | 1004.6 | |
| 20260505025705 | 7 | 0.0 | 0.0 | 0.00 | 0.23 | 0.23 | 85 | 1004.6 | |
| 20260505025213 | 7 | 0.0 | 0.0 | 0.00 | 0.23 | 0.23 | 85 | 1004.6 | |
| 20260505025206 | 7 | 0.0 | 0.0 | 0.00 | 0.23 | 0.23 | 85 | 1004.6 | |
| 20260505024712 | 7 | 0.0 | 0.0 | 0.00 | 0.23 | 0.23 | 85 | 1004.6 | |
| 20260505024705 | 7 | 0.0 | 0.0 | 0.00 | 0.23 | 0.23 | 85 | 1004.6 | |
| 20260505024221 | 7 | 0.0 | 0.0 | 0.00 | 0.23 | 0.23 | 85 | 1004.6 | |
| 20260505024214 | 7 | 0.0 | 0.0 | 0.00 | 0.23 | 0.23 | 85 | 1004.6 | |
| 20260505023713 | 7 | 0.0 | 0.0 | 0.00 | 0.23 | 0.23 | 85 | 1004.6 | |
| 20260505023706 | 7 | 0.0 | 0.0 | 0.00 | 0.23 | 0.23 | 85 | 1004.6 | |
| 20260505023212 | 7 | 0.0 | 0.0 | 0.00 | 0.23 | 0.23 | 85 | 1004.6 | |
| 20260505023205 | 7 | 0.0 | 0.0 | 0.00 | 0.23 | 0.23 | 85 | 1004.6 | |
| 20260505022713 | 7 | 0.0 | 0.0 | 0.00 | 0.23 | 0.23 | 85 | 1004.8 | |
| 20260505022706 | 7 | 0.0 | 0.0 | 0.00 | 0.23 | 0.23 | 85 | 1004.8 | |
| 20260505022215 | 7 | 0.0 | 0.0 | 0.00 | 0.23 | 0.23 | 85 | 1004.8 | |
| 20260505022208 | 7 | 0.0 | 0.0 | 0.00 | 0.23 | 0.23 | 85 | 1004.8 | |
| 20260505021712 | 7 | 0.0 | 0.0 | 0.00 | 0.23 | 0.23 | 85 | 1004.8 | |
| 20260505021705 | 7 | 0.0 | 0.0 | 0.00 | 0.23 | 0.23 | 85 | 1004.8 | |
| 20260505021206 | 7 | 0.0 | 0.0 | 0.00 | 0.23 | 0.23 | 85 | 1004.8 | |
| 20260505020713 | 7 | 0.0 | 0.0 | 0.00 | 0.23 | 0.23 | 84 | 1004.8 | |
| 20260505020706 | 7 | 0.0 | 0.0 | 0.00 | 0.23 | 0.23 | 84 | 1004.8 | |
| 20260505020213 | 7 | 0.0 | 0.0 | 0.00 | 0.23 | 0.23 | 84 | 1004.9 | |
| 20260505020206 | 7 | 0.0 | 0.0 | 0.00 | 0.23 | 0.23 | 84 | 1004.9 | |
| 20260505015732 | 7 | 0.0 | 0.0 | 0.00 | 0.23 | 0.23 | 84 | 1004.9 | |
| 20260505015205 | 7 | 0.0 | 0.0 | 0.00 | 0.23 | 0.23 | 84 | 1004.9 | |
| 20260505014730 | 7 | 0.0 | 0.0 | 0.00 | 0.23 | 0.23 | 84 | 1005.0 | |
| 20260505014226 | 7 | 0.0 | 0.0 | 0.00 | 0.23 | 0.23 | 84 | 1005.0 | |
| 20260505013712 | 7 | 0.0 | 0.0 | 0.00 | 0.23 | 0.23 | 84 | 1005.0 | |
| 20260505013705 | 7 | 0.0 | 0.0 | 0.00 | 0.23 | 0.23 | 84 | 1005.0 | |
| 20260505012712 | 7 | 0.0 | 0.0 | 0.00 | 0.23 | 0.23 | 83 | 1005.1 | |
| 20260505012705 | 7 | 0.0 | 0.0 | 0.00 | 0.23 | 0.23 | 83 | 1005.1 | |
| 20260505012212 | 7 | 0.0 | 0.0 | 0.00 | 0.23 | 0.23 | 83 | 1005.1 | |
| 20260505012205 | 7 | 0.0 | 0.0 | 0.00 | 0.23 | 0.23 | 83 | 1005.1 | |
| 20260505011708 | 7 | 0.0 | 0.0 | 0.00 | 0.23 | 0.23 | 82 | 1005.1 | |
| 20260505011215 | 7 | 0.0 | 0.0 | 0.00 | 0.23 | 0.23 | 82 | 1005.0 | |
| 20260505011208 | 7 | 0.0 | 0.0 | 0.00 | 0.23 | 0.23 | 82 | 1005.0 | |
| 20260505010724 | 7 | 0.0 | 0.0 | 0.00 | 0.23 | 0.23 | 81 | 1005.1 | |
| 20260505010213 | 7 | 0.0 | 0.0 | 0.00 | 0.23 | 0.23 | 81 | 1005.2 | |
| 20260505010206 | 7 | 0.0 | 0.0 | 0.00 | 0.23 | 0.23 | 81 | 1005.2 | |
| 20260505005713 | 7 | 0.0 | 0.0 | 0.00 | 0.23 | 0.23 | 80 | 1005.1 | |
| 20260505005706 | 7 | 0.0 | 0.0 | 0.00 | 0.23 | 0.23 | 80 | 1005.1 | |
| 20260505005212 | 7 | 0.0 | 0.0 | 0.00 | 0.23 | 0.23 | 79 | 1005.1 | |
| 20260505005205 | 7 | 0.0 | 0.0 | 0.00 | 0.23 | 0.23 | 79 | 1005.1 | |
| 20260505004223 | 7 | 0.0 | 0.0 | 0.00 | 0.23 | 0.23 | 79 | 1004.9 | |
| 20260505003712 | 8 | 0.0 | 0.0 | 0.00 | 0.23 | 0.23 | 78 | 1005.0 | |
| 20260505003705 | 8 | 0.0 | 0.0 | 0.00 | 0.23 | 0.23 | 78 | 1005.0 | |
| 20260505003214 | 8 | 0.0 | 0.0 | 0.00 | 0.23 | 0.23 | 78 | 1004.9 | |
| 20260505003207 | 8 | 0.0 | 0.0 | 0.00 | 0.23 | 0.23 | 78 | 1004.9 | |
| 20260505002705 | 8 | 0.0 | 0.0 | 0.00 | 0.23 | 0.23 | 77 | 1004.8 | |
| 20260505002214 | 8 | 0.0 | 0.0 | 0.00 | 0.23 | 0.23 | 77 | 1004.6 | |
| 20260505002207 | 8 | 0.0 | 0.0 | 0.00 | 0.23 | 0.23 | 77 | 1004.6 | |
| 20260505001707 | 8 | 0.0 | 0.0 | 0.00 | 0.23 | 0.23 | 76 | 1004.7 | |
| 20260505001233 | 8 | 0.0 | 0.0 | 0.00 | 0.23 | 0.23 | 76 | 1004.6 | |
| 20260505000713 | 8 | 0.0 | 0.0 | 0.00 | 0.23 | 0.23 | 79 | 1004.6 | |
| 20260505000706 | 8 | 0.0 | 0.0 | 0.00 | 0.23 | 0.23 | 79 | 1004.6 | |
| 20260504235712 | 9 | 0.0 | 0.0 | 0.00 | 0.23 | 0.23 | 74 | 1004.7 | |
| 20260504235705 | 9 | 0.0 | 0.0 | 0.00 | 0.23 | 0.23 | 74 | 1004.7 | |
| 20260504235212 | 9 | 0.0 | 0.0 | 0.00 | 0.23 | 0.23 | 74 | 1004.8 | |
| 20260504235205 | 9 | 0.0 | 0.0 | 0.00 | 0.23 | 0.23 | 74 | 1004.8 | |
| 20260504234731 | 9 | 0.0 | 0.0 | 0.00 | 0.23 | 0.23 | 74 | 1004.8 | |
| 20260504234227 | 9 | 0.0 | 0.0 | 0.00 | 0.23 | 0.23 | 73 | 1004.6 | |
| 20260504233726 | 9 | 0.0 | 0.0 | 0.00 | 0.23 | 0.23 | 73 | 1004.6 | |
| 20260504233213 | 9 | 0.0 | 0.0 | 0.00 | 0.23 | 0.23 | 73 | 1004.6 | |
| 20260504233206 | 9 | 0.0 | 0.0 | 0.00 | 0.23 | 0.23 | 73 | 1004.6 | |
| 20260504232717 | 10 | 0.0 | 0.0 | 0.00 | 0.23 | 0.23 | 72 | 1004.4 | |
| 20260504232710 | 10 | 0.0 | 0.0 | 0.00 | 0.23 | 0.23 | 72 | 1004.4 | |
| 20260504232232 | 10 | 0.0 | 0.0 | 0.00 | 0.23 | 0.23 | 72 | 1004.3 | |
| 20260504231803 | 10 | 0.0 | 0.0 | 0.00 | 0.23 | 0.23 | 72 | 1004.4 | |
| 20260504231213 | 10 | 0.0 | 0.0 | 0.00 | 0.23 | 0.23 | 71 | 1004.2 | |
| 20260504231206 | 10 | 0.0 | 0.0 | 0.00 | 0.23 | 0.23 | 71 | 1004.2 | |
| 20260504230713 | 10 | 0.0 | 0.0 | 0.00 | 0.23 | 0.23 | 71 | 1004.3 | |
| 20260504230706 | 10 | 0.0 | 0.0 | 0.00 | 0.23 | 0.23 | 71 | 1004.3 | |
| 20260504230213 | 10 | 0.0 | 0.0 | 0.00 | 0.23 | 0.23 | 71 | 1004.3 | |
| 20260504230206 | 10 | 0.0 | 0.0 | 0.00 | 0.23 | 0.23 | 71 | 1004.3 | |
| 20260504225706 | 10 | 0.0 | 0.0 | 0.00 | 0.23 | 0.23 | 72 | 1004.2 | |
| 20260504225226 | 10 | 0.0 | 0.0 | 0.00 | 0.23 | 0.23 | 71 | 1004.1 | |
| 20260504224712 | 10 | 0.0 | 0.0 | 0.00 | 0.23 | 0.23 | 71 | 1004.1 | |
| 20260504224705 | 10 | 0.0 | 0.0 | 0.00 | 0.23 | 0.23 | 71 | 1004.1 | |
| 20260504224213 | 10 | 0.0 | 0.0 | 0.00 | 0.23 | 0.23 | 70 | 1004.0 | |
| 20260504224205 | 10 | 0.0 | 0.0 | 0.00 | 0.23 | 0.23 | 70 | 1004.0 |